www.pogodaiklimat.ru

Погода и климат >> Архив погоды >> Австрия >> Цельтвег


ПОГОДА в Цельтвеге

  • Прогноз погоды в Цельтвеге
  • Монитор погоды в Цельтвеге

АРХИВ ПОГОДЫ в Цельтвеге

Время (UTC), дата Ветер
(напр.,м/с)
 
Видим.   Явления Облачность Т
(С)
Тd
(С)
f
(%)
Тe
(С)
Тes
(С)
Комфортность P
(гПа)
Po
(гПа)
Тmin
(С)
Tmax
(С)
R
(мм)
R24
(мм)
S
(см)
10 12.07 В 3 н/о н/о +18.9 +10.1 57 +20 +20 1012.1 935.7
11 12.07 СВ 5 н/о н/о +21.3 +9.8 48 +23 +23 комфорт 1011.1 935.4
12 12.07 В 1 н/о н/о +21.3 +8.3 43 +22 +22 комфорт 1010.4 934.7
13 12.07 СВ 3 н/о н/о +23.1 +9.3 41 +25 +25 комфорт 1009.4 934.2 0.0
14 12.07 СВ 3 н/о н/о +22.6 +8.9 42 +24 +24 комфорт 1009.1 933.8 0.0
15 12.07 СВ 5 н/о н/о +21.2 +9.8 48 +23 +23 комфорт 1009.6 934.0 0.0
16 12.07 В 4 н/о н/о +19.7 +11.5 59 +21 +21 комфорт 1010.0 934.0
17 12.07 В 4 н/о н/о +19.9 +10.7 55 +21 +21 комфорт 1009.7 933.8
18 12.07 В 5 н/о н/о +19.2 +9.1 52 +20 +20 1010.7 934.5 +13.6 +23.8 0.0
19 12.07 С 1 н/о н/о +17.8 +9.8 59 +19 +19 1011.3 934.7
20 12.07 С 2 н/о н/о +16.2 +10.2 68 +16 +16 1012.3 935.2
21 12.07 СВ 1 н/о н/о +15.7 +10.7 72 +16 +16 1012.5 935.3
22 12.07 штиль 0 н/о н/о +15.5 +10.9 74 +15 +15 1012.5 935.3
23 12.07 СВ 1 н/о н/о +13.4 +10.5 83 +14 +14 1013.1 935.3
00 13.07 СЗ 1 н/о н/о +13.7 +10.7 82 +14 +14 1012.5 934.8
01 13.07 ЮВ 1 н/о н/о +14.1 +10.7 80 +14 +14 1012.0 934.4
02 13.07 штиль 0 н/о н/о +13.3 +10.7 84 +13 +13 1011.9 934.1
03 13.07 штиль 0 н/о н/о +12.5 +10.3 86 +12 +12 1011.8 933.8
04 13.07 СВ 2 н/о н/о +13.1 +10.1 82 +12 +12 1011.6 933.8
05 13.07 СЗ 1 н/о н/о +12.8 +10.6 86 +13 +13 1011.7 933.8
06 13.07 В 2 н/о н/о +14.6 +10.8 78 +14 +14 1011.4 934.0 +11.9 +19.6
07 13.07 В 2 н/о н/о +15.9 +10.7 71 +16 +16 1011.2 934.2
08 13.07 В 3 н/о н/о +16.9 +10.6 66 +17 +17 1011.1 934.3
09 13.07 З 6 н/о н/о +19.1 +6.8 45 +19 +19 1011.0 934.7
10 13.07 З 7
{14}
н/о н/о +19.6 +6.8 43 +20 +20 1011.1 934.9
11 13.07 З 8
{13}
н/о н/о +18.6 +6.1 44 +18 +18 1011.9 935.4
12 13.07 З 8
{14}
н/о н/о +17.3 +7.0 51 +16 +16 1012.7 935.8
14 13.07 СЗ 2
{13}
н/о н/о +19.0 +7.1 46 +20 +20 1011.5 935.1
15 13.07 З 8
{14}
н/о н/о +18.2 +7.2 49 +17 +17 1011.7 935.1
17 13.07 З 8 н/о н/о +17.6 +7.7 52 +17 +17 1012.3 935.5
18 13.07 З 6
{14}
н/о н/о +16.9 +7.4 53 +16 +16 1012.7 935.7 +14.5 +21.1
19 13.07 З 5 н/о н/о +16.3 +7.1 54 +15 +15 1013.0 935.8
20 13.07 СЗ 2 н/о н/о +15.0 +7.2 60 +15 +15 1014.0 936.4
21 13.07 З 4 н/о н/о +15.7 +7.1 57 +15 +15 1013.9 936.5
22 13.07 З 4 н/о н/о +15.9 +7.4 57 +15 +15 1014.0 936.7
23 13.07 З 5 н/о н/о +16.0 +7.5 57 +15 +15 1013.8 936.5
00 14.07 З 5 н/о н/о +15.5 +8.2 62 +14 +14 1013.7 936.3
01 14.07 З 5 н/о н/о +15.3 +8.3 63 +14 +14 1013.2 935.8
02 14.07 З 2 н/о н/о +14.7 +8.3 65 +14 +14 1013.2 935.6
03 14.07 В 1 н/о н/о +14.8 +8.2 65 +15 +15 1013.1 935.6
04 14.07 В 1 н/о н/о +13.9 +9.0 72 +14 +14 1013.5 935.7 0.0
05 14.07 штиль 0 н/о н/о +13.7 +8.8 72 +13 +13 1013.8 935.9
06 14.07 СВ 2 н/о н/о +15.5 +9.4 67 +15 +15 1013.3 936.0 +13.1 +17.0 0.0
07 14.07 В 2 н/о н/о +15.9 +9.8 67 +16 +16 1013.7 936.4 0.0
08 14.07 СВ 3 н/о н/о +16.5 +10.1 66 +16 +16 1013.8 936.7 0.0
09 14.07 В 4 н/о н/о +17.6 +9.9 61 +17 +17 1013.7 936.9 0.0
10 14.07 В 2 н/о н/о +17.2 +10.1 63 +18 +18 1013.9 937.0 0.0
11 14.07 З 1 н/о н/о +19.7 +10.2 54 +22 +22 комфорт 1013.2 936.9 0.0
12 14.07 З 6 н/о н/о +18.8 +9.9 56 +19 +19 1013.1 936.6 0.0
13 14.07 ЮЗ 4 н/о н/о +19.0 +10.5 58 +20 +20 1012.8 936.4
14 14.07 СВ 3 н/о н/о +20.1 +9.3 50 +22 +22 комфорт 1012.3 936.2
15 14.07 З 6 н/о осадки н/о +16.7 +13.1 79 +16 +16 1013.1 936.2 0.0
16 14.07 ЮЗ 4 н/о н/о +18.6 +10.9 61 +19 +19 1012.2 935.8 0.0
17 14.07 З 2 н/о н/о +18.8 +9.6 55 +20 +20 1012.2 935.8
18 14.07 В 3 н/о {осадки} н/о +18.7 +9.1 54 +19 +19 1012.5 936.0 +14.7 +20.9 0.0
19 14.07 ЮЗ 2 н/о н/о +16.5 +10.2 66 +17 +17 1013.6 936.5
20 14.07 ЮЗ 2 н/о н/о +15.6 +9.5 67 +16 +16 1014.2 936.8
21 14.07 Ю 1 н/о н/о +14.3 +9.1 71 +15 +15 1014.7 936.9
22 14.07 З 1 н/о н/о +12.3 +8.6 78 +12 +12 1015.9 937.5
23 14.07 штиль 0 н/о н/о +10.5 +7.9 84 +10 +10 1016.4 937.5
00 15.07 СЗ 1 н/о н/о +9.0 +7.1 88 +8 +8 1016.8 937.4
01 15.07 З 1 н/о н/о +8.5 +7.0 90 +8 +8 1016.8 937.3
02 15.07 З 1 н/о н/о +8.0 +6.6 91 +7 +7 1016.5 936.9
03 15.07 штиль 0 н/о н/о +6.8 +5.5 91 +6 +6 1017.1 937.1
04 15.07 З 2 н/о н/о +6.3 +5.0 91 +4 +4 1017.6 937.4
05 15.07 ЮВ 1 н/о н/о +9.0 +7.1 88 +8 +8 1017.0 937.6
06 15.07 С 1 н/о н/о +10.8 +7.9 82 +11 +11 1016.3 937.5 +6.2 +19.0
07 15.07 В 1 н/о н/о +13.2 +8.3 72 +13 +13 1015.2 937.1
08 15.07 В 1 н/о н/о +17.2 +8.3 56 +18 +18 1013.8 936.8
09 15.07 СВ 2 н/о н/о +19.9 +8.3 47 +22 +22 комфорт 1012.6 936.4
10 15.07 С 1 н/о н/о +19.6 +7.6 46 +22 +22 комфорт 1012.7 936.4
11 15.07 В 2 н/о н/о +19.8 +8.3 47 +21 +21 комфорт 1012.6 936.4
12 15.07 СВ 3 н/о н/о +20.2 +7.0 42 +21 +21 комфорт 1012.4 936.3
13 15.07 СВ 3 н/о н/о +21.0 +6.6 39 +22 +22 комфорт 1012.1 936.2
14 15.07 ЮВ 4 н/о н/о +20.5 +8.9 47 +22 +22 комфорт 1012.4 936.4
15 15.07 ЮВ 3 н/о н/о +20.6 +8.5 46 +22 +22 комфорт 1012.3 936.3
16 15.07 СВ 4 н/о в посл. час осадки н/о +20.9 +9.3 47 +23 +23 комфорт 1012.2 936.3 0.0
17 15.07 СВ 3 н/о н/о +20.1 +9.2 49 +22 +22 комфорт 1012.3 936.2
18 15.07 СЗ 2 н/о {осадки} н/о +18.1 +10.5 61 +19 +19 1013.1 936.5 +10.7 +21.9 0.0
19 15.07 СЗ 1 н/о н/о +15.4 +9.5 68 +16 +16 1014.2 936.8
20 15.07 З 2 н/о н/о +14.1 +9.5 74 +14 +14 1015.4 937.5
21 15.07 З 1 н/о н/о +13.2 +8.9 75 +13 +13 1016.1 937.9 0.0
22 15.07 З 1 н/о н/о +11.6 +8.2 80 +11 +11 1017.1 938.4
23 15.07 З 1 н/о н/о +10.0 +7.3 83 +10 +10 1017.7 938.5
00 16.07 СЗ 2 н/о н/о +8.7 +6.4 85 +7 +7 1018.2 938.6 0.0
01 16.07 З 1 н/о н/о +7.4 +5.1 85 +7 +7 1018.7 938.7
02 16.07 штиль 0 н/о н/о +7.9 +6.1 88 +7 +7 1018.4 938.6
03 16.07 СЗ 1 н/о н/о +6.2 +4.5 89 +5 +5 1019.0 938.7
04 16.07 СЗ 1 н/о н/о +6.1 +4.4 89 +5 +5 1019.0 938.6
05 16.07 СВ 1 н/о н/о +9.4 +7.1 86 +9 +9 1018.1 938.7
06 16.07 ЮЗ 1 н/о н/о +11.0 +7.6 80 +11 +11 1017.5 938.6 +5.8 +19.6 0.0
07 16.07 штиль 0 н/о н/о +13.3 +7.9 70 +13 +13 1016.7 938.5
08 16.07 СВ 1 н/о н/о +17.3 +8.2 55 +18 +18 1015.1 938.1
09 16.07 СВ 1 н/о н/о +21.4 +8.3 43 +23 +23 комфорт 1013.5 937.6
10 16.07 В 2 н/о н/о +22.4 +7.9 39 +23 +23 комфорт 1012.7 937.1
11 16.07 В 1 н/о н/о +23.8 +7.7 36 +24 +24 комфорт 1012.1 936.9
12 16.07 СВ 1 н/о н/о +23.0 +7.3 36 +24 +24 комфорт 1012.1 936.7
13 16.07 Ю 2 н/о н/о +23.8 +7.7 36 +24 +24 комфорт 1011.6 936.4
14 16.07 В 3 н/о н/о +23.5 +7.1 35 +24 +24 комфорт 1011.7 936.4 0.0
15 16.07 СВ 3 н/о н/о +24.5 +5.9 30 +24 +24 комфорт 1010.9 935.9 0.0
16 16.07 С 4 н/о н/о +25.1 +6.0 29 +25 +25 комфорт 1010.4 935.6
17 16.07 СЗ 3 н/о н/о +24.6 +6.8 32 +25 +25 комфорт 1010.6 935.7
18 16.07 С 4 н/о н/о +22.6 +7.2 37 +23 +23 комфорт 1011.4 935.9 +10.7 +25.6 0.0
19 16.07 СЗ 4 н/о н/о +20.4 +6.7 41 +21 +21 комфорт 1012.5 936.4
20 16.07 Ю 1 н/о н/о +18.4 +7.4 49 +20 +20 1014.0 937.3
21 16.07 ЮЗ 1 н/о н/о +14.0 +7.0 63 +14 +14 1015.5 937.6
22 16.07 С 1 н/о н/о +11.6 +7.0 73 +12 +12 1016.4 937.8
23 16.07 С 1 н/о н/о +10.7 +6.8 77 +10 +10 1017.0 938.1
00 17.07 ЮЗ 1 н/о н/о +10.3 +6.6 78 +10 +10 1017.3 938.2
01 17.07 В 1 н/о н/о +9.7 +6.3 79 +9 +9 1017.4 938.2
02 17.07 З 2 н/о н/о +7.2 +4.6 84 +5 +5 1018.1 938.1
03 17.07 СЗ 2 н/о н/о +7.9 +5.4 84 +6 +6 1017.9 938.1
04 17.07 Ю 1 н/о н/о +8.2 +5.9 85 +7 +7 1017.9 938.2
05 17.07 штиль 0 н/о н/о +12.2 +7.3 72 +12 +12 1016.6 938.1
06 17.07 штиль 0 н/о н/о +12.7 +7.9 73 +12 +12 1016.1 937.8 +6.5 +22.9
07 17.07 штиль 0 н/о н/о +15.3 +8.4 63 +15 +15 1014.8 937.3
08 17.07 В 1 н/о н/о +19.7 +9.1 50 +22 +22 комфорт 1013.0 936.7
09 17.07 В 1 н/о н/о +22.2 +8.4 41 +23 +23 комфорт 1011.8 936.2
10 17.07 СВ 3 н/о н/о +24.6 +7.3 33 +25 +25 комфорт 1010.5 935.6
11 17.07 В 3 н/о н/о +25.9 +7.4 31 +26 +26 жарко 1009.4 934.9
12 17.07 СВ 4 н/о н/о +26.7 +7.6 30 +27 +27 жарко 1008.9 934.6
13 17.07 СВ 4 н/о н/о +26.8 +7.6 30 +27 +27 жарко 1008.5 934.3
14 17.07 СВ 4 н/о н/о +27.2 +7.5 29 +27 +27 жарко 1008.1 934.0 0.0
15 17.07 В 4 н/о н/о +27.2 +10.2 34 +28 +28 жарко 1007.8 933.8 0.0
16 17.07 Ю 4 н/о н/о +25.8 +11.5 41 +27 +27 жарко 1007.9 933.6
17 17.07 ЮВ 4 н/о осадки н/о +23.9 +12.0 47 +26 +26 жарко 1008.4 933.6 0.0
18 17.07 С 4 н/о в посл. час осадки н/о +18.4 +13.9 75 +19 +19 1010.6 934.3 +12.4 +28.3 0.9
19 17.07 В 2 н/о н/о +17.3 +13.8 80 +18 +18 1011.8 935.1
20 17.07 З 6 н/о н/о +15.4 +13.5 88 +14 +14 1014.1 936.8 11
21 17.07 ЮЗ 2 н/о {ливн. осадки} н/о +13.7 +12.6 93 +13 +13 1015.5 937.6 22
22 17.07 СЗ 1 н/о в посл. час осадки н/о +13.5 +12.7 95 +14 +14 1015.8 937.8 0.9
23 17.07 ЮЗ 1 н/о н/о +13.9 +12.9 94 +14 +14 1015.6 937.8
00 18.07 З 1 н/о {осадки} н/о +13.8 +13.0 95 +14 +14 1014.6 936.8 23
01 18.07 штиль 0 н/о н/о +13.1 +12.4 96 +13 +13 1014.4 936.4
02 18.07 штиль 0 н/о н/о +13.3 +12.7 96 +13 +13 1013.9 936.0
03 18.07 Ю 1 н/о н/о +12.5 +11.6 94 +12 +12 1014.4 936.3
04 18.07 В 1 н/о н/о +12.2 +11.5 95 +12 +12 1014.6 936.4
05 18.07 Ю 1 н/о н/о +12.7 +11.4 92 +13 +13 1014.5 936.4
06 18.07 ЮВ 1 н/о н/о +13.6 +12.2 91 +14 +14 1014.4 936.6 +12.0 +18.7 23
07 18.07 СВ 1 н/о н/о +15.7 +13.0 84 +16 +16 1013.9 936.7
08 18.07 С 1 н/о н/о +15.7 +12.4 81 +16 +16 1013.9 936.6
09 18.07 ЮЗ 1 н/о н/о +17.9 +13.2 74 +19 +19 1013.0 936.4
10 18.07 СВ 1 н/о н/о +20.0 +13.2 65 +23 +23 комфорт 1012.2 936.2
11 18.07 ЮВ 1 н/о н/о +22.7 +12.2 51 +25 +25 комфорт 1011.0 935.7
12 18.07 С 3 н/о н/о +23.6 +10.9 45 +25 +25 комфорт 1010.4 935.3 0.0
13 18.07 С 3 н/о н/о +24.1 +8.6 37 +25 +25 комфорт 1009.9 934.9
14 18.07 З 1 н/о в посл. час осадки н/о +22.1 +15.0 64 +26 +26 душно 1010.5 935.2 0.5
15 18.07 Ю 4 н/о {осадки} н/о +21.2 +11.9 55 +23 +23 комфорт 1011.1 935.4 0.5
16 18.07 Ю 4 н/о н/о +22.2 +11.4 50 +24 +24 комфорт 1010.7 935.3
17 18.07 ЮВ 3 н/о в посл. час осадки н/о +19.8 +13.7 68 +22 +22 комфорт 1012.4 936.3 0.1
18 18.07 Ю 2 н/о {ливн. осадки} н/о +19.4 +12.9 66 +21 +21 комфорт 1012.9 936.7 +13.3 +25.5 0.6
19 18.07 ЮВ 2 н/о н/о +17.9 +13.5 75 +18 +18 1014.0 937.3
20 18.07 ЮЗ 1 н/о н/о +16.2 +12.6 79 +17 +17 1015.2 938.0
21 18.07 ЮВ 1 н/о н/о +15.3 +12.3 82 +16 +16 1016.0 938.5
22 18.07 ЮЗ 1 н/о н/о +13.5 +11.9 90 +14 +14 1016.9 938.8
23 18.07 ЮЗ 1 н/о н/о +13.0 +11.3 89 +13 +13 1017.5 939.2
00 19.07 З 2 н/о н/о +11.4 +10.0 91 +10 +10 1018.3 939.5
01 19.07 СЗ 1 н/о н/о +11.2 +9.7 90 +11 +11 1018.4 939.6
02 19.07 З 1 н/о н/о +10.9 +9.8 93 +10 +10 1018.6 939.7
03 19.07 штиль 0 н/о н/о +10.1 +9.1 94 +9 +9 1019.1 939.9
05 19.07 штиль 0 н/о н/о +11.8 +10.3 91 +11 +11 1018.9 940.2
06 19.07 СВ 1 н/о н/о +12.9 +10.6 86 +13 +13 1018.7 940.3 +9.2 +19.5
07 19.07 З 1 н/о н/о +14.2 +10.9 81 +15 +15 1018.2 940.2
08 19.07 СЗ 1 н/о н/о +17.8 +11.2 65 +19 +19 1016.8 939.8
09 19.07 В 1 н/о н/о +20.9 +10.8 52 +24 +24 комфорт 1015.8 939.7

 

Местоположение метеостанции Цельтвег (Австрия): широта 47.20 долгота 14.75 высота над уровнем моря 679 м.

В архиве по умолчанию представлена погода в Цельтвеге за последнюю неделю. Архивные данные за месяц целиком и за предыдущие месяцы, начиная с января 2011 года, Вы можете получить, выбрав интересующий диапазон дат из раскрывающегося списка и нажав кнопку "Ввод!".


*Определитесь, кто Вы:
робот инопланетянин человек

Внимание! Время в таблицах - всемирное. Для получения местного времени необходимо прибавить поправку, которая равна 1 ч.

Смотрите также архив погоды в соседних городах и на ближайших метеорологических станциях:

Погода в Кальванге (Австрия) (24 км)
Погода в Ноймаркте (Австрия) (29 км)
Погода в Кёфлаге (Австрия) (29 км)
Погода в Леобене (Австрия) (33 км)
Погода в Прайтенеге (Австрия) (33 км)
Погода в Пребихле (Австрия) (39 км)
Погода в Мурау (Австрия) (44 км)
Погода в Брукк-ан-дер-Муре (Австрия) (46 км)
Погода в Санкт-Андре (Австрия) (48 км)
Погода в Капфенберге (Австрия) (50 км)

Пояснения к столбцам:

Ветер - указаны скорость ветра в м/с - средняя за 10 мин, порывы в срок и между сроками (в фигурных скобках) и направление, откуда дует ветер: С - северный, СВ - северо-восточный, В - восточный, ЮВ - юго-восточный, Ю - южный, ЮЗ - юго-западный, З - западный, СЗ - северо-западный.
Видимость - горизонтальная дальность видимости в метрах или километрах. При видимости от 1 до 10 км при отсутствии осадков обычно наблюдается дымка, при ухудшении видимости до 1 км и менее - туман. В сухую погоду видимость может ухудшаться дымом, пылью или мглою.
Явления - указаны атмосферные явления, наблюдавшиеся в срок или в последний час перед сроком; фигурными скобками обозначены явления, наблюдавшиеся между сроками (за 1-3 часа до срока); квадратными скобками обозначены град или гололедные отложения с указанием их диаметра в мм.
Облачность - указаны через наклонную черту общая и нижняя облачность в баллах и высота нижней границы облаков в метрах; квадратными скобками обозначены формы облаков: Ci - перистые, Cs - перисто-слоистые, Cc - перисто-кучевые, Ac - высококучевые, As - высокослоистые, Sc - слоисто-кучевые, Ns - слоисто-дождевые, Cu - кучевые, Cb - кучево-дождевые. Подробнее классификацию облаков см. в Атласе облаков (PDF).
T - Температура воздуха - температура, измеренная на высоте 2 м над землей.
Td - Температура точки росы - температура, при понижении до которой содержащийся в воздухе водяной пар достигнет насыщения.
f - Относительная влажность воздуха - влажноcть воздуха, измеренная на высоте 2 м над землей.
Te - Эффективная температура - температура, которую ощущает одетый по сезону человек в тени. Характеристика душности погоды. При расчете учитывается влияние влажности воздуха и скорости ветра на теплоощущения человека.
Tes - Эффективная температура на солнце - температура, которую ощущает человек, с поправкой на солнечный нагрев. Характеристика знойности погоды. Зависит от высоты солнца над горизонтом, облачности и скорости ветра. Ночью, в пасмурную погоду, а также при ветре 12 м/с и более поправка равна нулю.
P - Атмосферное давление - приведенное к уровню моря атмосферное давление.
Po - Атмосферное давление - измеренное на уровне метеостанции атмосферное давление.
Tmin - Минимальная температура - минимум температуры воздуха на высоте 2 м над землей.
Tmax - Максимальная температура - максимум температуры воздуха на высоте 2 м над землей.
R - Количество осадков - Количество выпавших осадков за период времени, мм. При наведении курсора мыши на число - период времени, за который выпало указанное количество осадков.
R24 - Количество осадков - Количество выпавших осадков за 24 часа, мм.
S - Снежный покров - Высота снежного покрова, см. При наведении курсора мыши на число - состояние снежного покрова и степень покрытия местности в баллах.